Simultaneous Nadir Overpasses (SNOs) Predictions

Prediction of SNOs between NOAA-20 and PACE Satellite Orbit:

Table of predicted SNOs for the next 14.0 days since TLE Epoch: 2/22/2025
Index Date (NOAA-20) Time (NOAA-20) Lat,Lon (NOAA-20) SZA (NOAA-20 ) Date (PACE) Time (PACE) Lat,Lon (PACE) SZA (PACE ) Distance(km) Time Diff (sec)
1 02/23/2025 20:19:08 79.61,-160.36 91.33 02/23/2025 20:19:00 79.62,-160.45 91.34 1.81 8
2 02/26/2025 00:45:40 79.85, 130.91 90.93 02/26/2025 00:46:43 79.84, 131.03 90.88 2.66 63
3 02/26/2025 01:36:18 -79.65, -59.99 89.44 02/26/2025 01:35:49 -79.64, -59.86 89.44 2.76 29
4 02/28/2025 06:02:47 -79.79,-127.90 90.01 02/28/2025 06:03:29 -79.78,-127.76 90.05 3.03 42
5 02/28/2025 06:53:23 79.49, 42.08 89.45 02/28/2025 06:52:32 79.49, 41.99 89.48 1.81 51
6 03/02/2025 11:19:55 79.74, -26.69 89.05 03/02/2025 11:20:14 79.74, -26.63 89.03 1.08 19
7 03/02/2025 12:10:31 -79.47, 142.93 91.44 03/02/2025 12:09:18 -79.47, 142.96 91.41 0.76 73
8 03/04/2025 16:37:00 -79.63, 74.98 92.01 03/04/2025 16:36:57 -79.63, 74.94 92.00 0.83 3
9 03/06/2025 21:03:30 -79.82, 6.67 92.53 03/06/2025 21:04:36 -79.82, 6.68 92.56 0.17 66



Historial Predications of SNOs between NOAA-20 and PACE
